Location: Newark
(33.6333°S, 78.8500°W)
Time: 03:40:36
(UTC+00:00)

Courier 1B - Pass Details

Date: 23 September 2019
Orbit: 962 x 1209 km, 28.3° (Epoch: 22 October)

Event Time Altitude Azimuth Distance (km) Brightness Sun altitude
Rises 18:46:28 0° 343° (NNW) 4,093 11.3 49.3°
Reaches altitude 10° 18:51:45 10° 12° (NNE) 3,135 10.6 48.6°
Maximum altitude 18:54:19 12° 32° (NNE) 2,993 10.3 48.2°
Drops below altitude 10° 18:56:53 10° 51° (NE) 3,123 10.2 47.9°
Sets 19:02:05 0° 80° (E) 4,056 10.5 47.1°
